| time (UTC) | temp F | wind direction | speed MPH | gust MPH | rain 1hr in | rain 24hr in | rain mn in | humidity % | barometer mb |
| 20260504035539 | 53 | 31 | 12.0 | 20.0 | 0.00 | 0.00 | 0.00 | 39 | 1013.7 |
| 20260504035039 | 53 | 14 | 9.0 | 20.0 | 0.00 | 0.00 | 0.00 | 39 | 1013.6 |
| 20260504034553 | 53 | 355 | 8.0 | 19.0 | 0.00 | 0.00 | 0.00 | 37 | 1013.5 |
| 20260504034040 | 53 | 15 | 11.0 | 19.0 | 0.00 | 0.00 | 0.00 | 37 | 1013.4 |
| 20260504033540 | 53 | 27 | 10.0 | 20.0 | 0.00 | 0.00 | 0.00 | 37 | 1013.3 |
| 20260504033056 | 54 | 17 | 8.0 | 20.0 | 0.00 | 0.00 | 0.00 | 36 | 1013.2 |
| 20260504032540 | 54 | 15 | 9.0 | 16.0 | 0.00 | 0.00 | 0.00 | 36 | 1013.2 |
| 20260504032040 | 54 | 20 | 8.0 | 17.0 | 0.00 | 0.00 | 0.00 | 36 | 1013.1 |
| 20260504031550 | 54 | 42 | 10.0 | 22.0 | 0.00 | 0.00 | 0.00 | 36 | 1012.9 |
| 20260504031039 | 54 | 355 | 11.0 | 22.0 | 0.00 | 0.00 | 0.00 | 35 | 1012.8 |
| 20260504030542 | 55 | 15 | 11.0 | 18.0 | 0.00 | 0.00 | 0.00 | 35 | 1012.7 |
| 20260504030047 | 55 | 9 | 8.0 | 17.0 | 0.00 | 0.00 | 0.00 | 35 | 1012.7 |
| 20260504025539 | 55 | 22 | 8.0 | 17.0 | 0.00 | 0.00 | 0.00 | 35 | 1012.4 |
| 20260504025040 | 55 | 39 | 10.0 | 17.0 | 0.00 | 0.00 | 0.00 | 35 | 1012.3 |
| 20260504024550 | 56 | 16 | 8.0 | 17.0 | 0.00 | 0.00 | 0.00 | 34 | 1012.0 |
| 20260504024040 | 56 | 13 | 9.0 | 22.0 | 0.00 | 0.00 | 0.00 | 34 | 1011.9 |
| 20260504023540 | 56 | 25 | 10.0 | 22.0 | 0.00 | 0.00 | 0.00 | 34 | 1011.8 |
| 20260504023049 | 56 | 32 | 9.0 | 22.0 | 0.00 | 0.00 | 0.00 | 34 | 1011.7 |
| 20260504022540 | 57 | 23 | 5.0 | 13.0 | 0.00 | 0.00 | 0.00 | 35 | 1011.7 |
| 20260504022039 | 57 | 26 | 6.0 | 13.0 | 0.00 | 0.00 | 0.00 | 35 | 1011.6 |
| 20260504021547 | 57 | 24 | 6.0 | 14.0 | 0.00 | 0.00 | 0.00 | 34 | 1011.5 |
| 20260504021041 | 57 | 30 | 5.0 | 16.0 | 0.00 | 0.00 | 0.00 | 34 | 1011.4 |
| 20260504020541 | 57 | 26 | 10.0 | 19.0 | 0.00 | 0.00 | 0.00 | 34 | 1011.3 |
| 20260504020049 | 58 | 24 | 10.0 | 19.0 | 0.00 | 0.00 | 0.00 | 34 | 1011.2 |
| 20260504015539 | 58 | 17 | 12.0 | 19.0 | 0.00 | 0.00 | 0.00 | 33 | 1011.1 |
| 20260504015042 | 58 | 19 | 10.0 | 21.0 | 0.00 | 0.00 | 0.00 | 33 | 1011.0 |
| 20260504014552 | 58 | 28 | 11.0 | 22.0 | 0.00 | 0.00 | 0.00 | 33 | 1011.0 |
| 20260504014039 | 58 | 46 | 15.0 | 22.0 | 0.00 | 0.00 | 0.00 | 33 | 1011.0 |
| 20260504013539 | 59 | 31 | 12.0 | 21.0 | 0.00 | 0.00 | 0.00 | 33 | 1010.7 |
| 20260504013051 | 59 | 46 | 13.0 | 22.0 | 0.00 | 0.00 | 0.00 | 32 | 1010.6 |
| 20260504012542 | 60 | 30 | 13.0 | 24.0 | 0.00 | 0.00 | 0.00 | 32 | 1010.6 |
| 20260504012039 | 61 | 36 | 11.0 | 24.0 | 0.00 | 0.00 | 0.00 | 31 | 1010.6 |
| 20260504011550 | 62 | 39 | 10.0 | 18.0 | 0.00 | 0.00 | 0.00 | 31 | 1010.5 |
| 20260504011038 | 62 | 5 | 10.0 | 22.0 | 0.00 | 0.00 | 0.00 | 31 | 1010.3 |
| 20260504010539 | 62 | 15 | 9.0 | 27.0 | 0.00 | 0.00 | 0.00 | 32 | 1010.2 |
| 20260504010055 | 62 | 9 | 14.0 | 27.0 | 0.00 | 0.00 | 0.00 | 31 | 1010.1 |
| 20260504005540 | 63 | 360 | 10.0 | 18.0 | 0.00 | 0.00 | 0.00 | 31 | 1010.0 |
| 20260504005040 | 63 | 30 | 11.0 | 23.0 | 0.00 | 0.00 | 0.00 | 31 | 1010.0 |
| 20260504004550 | 63 | 18 | 11.0 | 23.0 | 0.00 | 0.00 | 0.00 | 31 | 1009.9 |
| 20260504004040 | 63 | 321 | 12.0 | 23.0 | 0.00 | 0.00 | 0.00 | 30 | 1009.9 |
| 20260504003543 | 64 | 329 | 14.0 | 23.0 | 0.00 | 0.00 | 0.00 | 31 | 1009.9 |
| 20260504003051 | 64 | 27 | 12.0 | 23.0 | 0.00 | 0.00 | 0.00 | 31 | 1009.7 |
| 20260504002539 | 64 | 352 | 8.0 | 20.0 | 0.00 | 0.00 | 0.00 | 30 | 1009.6 |
| 20260504002039 | 65 | 37 | 10.0 | 20.0 | 0.00 | 0.00 | 0.00 | 30 | 1009.6 |
| 20260504001607 | 65 | 352 | 12.0 | 20.0 | 0.00 | 0.00 | 0.00 | 30 | 1009.5 |
| 20260504001039 | 65 | 37 | 10.0 | 19.0 | 0.00 | 0.00 | 0.00 | 30 | 1009.5 |
| 20260504000540 | 65 | 350 | 12.0 | 23.0 | 0.00 | 0.00 | 0.00 | 29 | 1009.5 |
| 20260504000053 | 65 | 352 | 11.0 | 23.0 | 0.00 | 0.00 | 0.00 | 30 | 1009.5 |
| 20260503235540 | 65 | 319 | 10.0 | 21.0 | 0.00 | 0.00 | 0.00 | 30 | 1009.3 |
| 20260503235040 | 65 | 345 | 12.0 | 21.0 | 0.00 | 0.00 | 0.00 | 29 | 1009.4 |
| 20260503234547 | 65 | 349 | 9.0 | 23.0 | 0.00 | 0.00 | 0.00 | 30 | 1009.4 |
| 20260503234040 | 65 | 339 | 13.0 | 23.0 | 0.00 | 0.00 | 0.00 | 30 | 1009.4 |
| 20260503233540 | 65 | 44 | 10.0 | 23.0 | 0.00 | 0.00 | 0.00 | 30 | 1009.3 |
| 20260503233053 | 65 | 345 | 14.0 | 21.0 | 0.00 | 0.00 | 0.00 | 30 | 1009.4 |
| 20260503232542 | 65 | 5 | 11.0 | 18.0 | 0.00 | 0.00 | 0.00 | 30 | 1009.3 |
| 20260503232040 | 65 | 16 | 11.0 | 21.0 | 0.00 | 0.00 | 0.00 | 29 | 1009.3 |
| 20260503231557 | 65 | 5 | 11.0 | 21.0 | 0.00 | 0.00 | 0.00 | 29 | 1009.3 |
| 20260503231040 | 65 | 5 | 13.0 | 21.0 | 0.00 | 0.00 | 0.00 | 29 | 1009.3 |
| 20260503230541 | 65 | 342 | 11.0 | 18.0 | 0.00 | 0.00 | 0.00 | 29 | 1009.3 |
| 20260503230048 | 66 | 10 | 11.0 | 18.0 | 0.00 | 0.00 | 0.00 | 30 | 1009.4 |
| 20260503225540 | 66 | 11 | 11.0 | 16.0 | 0.00 | 0.00 | 0.00 | 29 | 1009.4 |
| 20260503225040 | 66 | 15 | 9.0 | 17.0 | 0.00 | 0.00 | 0.00 | 29 | 1009.4 |
| 20260503224551 | 66 | 306 | 9.0 | 22.0 | 0.00 | 0.00 | 0.00 | 29 | 1009.3 |
| 20260503224039 | 66 | 352 | 7.0 | 22.0 | 0.00 | 0.00 | 0.00 | 30 | 1009.5 |
| 20260503223542 | 66 | 58 | 12.0 | 22.0 | 0.00 | 0.00 | 0.00 | 29 | 1009.3 |
| 20260503223049 | 66 | 5 | 12.0 | 20.0 | 0.00 | 0.00 | 0.00 | 30 | 1009.4 |
| 20260503222539 | 66 | 16 | 11.0 | 20.0 | 0.00 | 0.00 | 0.00 | 28 | 1009.3 |
| 20260503222039 | 67 | 344 | 8.0 | 21.0 | 0.00 | 0.00 | 0.00 | 31 | 1009.3 |
| 20260503221551 | 67 | 352 | 11.0 | 21.0 | 0.00 | 0.00 | 0.00 | 29 | 1009.3 |
| 20260503221043 | 68 | 44 | 12.0 | 20.0 | 0.00 | 0.00 | 0.00 | 27 | 1009.2 |
| 20260503220540 | 68 | 9 | 10.0 | 22.0 | 0.00 | 0.00 | 0.00 | 28 | 1009.2 |
| 20260503220109 | 68 | 40 | 12.0 | 22.0 | 0.00 | 0.00 | 0.00 | 28 | 1009.3 |
| 20260503215539 | 69 | 50 | 11.0 | 20.0 | 0.00 | 0.00 | 0.00 | 26 | 1009.2 |
| 20260503215039 | 69 | 49 | 9.0 | 18.0 | 0.00 | 0.00 | 0.00 | 27 | 1009.2 |
| 20260503214548 | 69 | 37 | 7.0 | 17.0 | 0.00 | 0.00 | 0.00 | 27 | 1009.1 |
| 20260503214041 | 69 | 5 | 7.0 | 19.0 | 0.00 | 0.00 | 0.00 | 25 | 1009.2 |
| 20260503213539 | 69 | 318 | 9.0 | 19.0 | 0.00 | 0.00 | 0.00 | 24 | 1009.2 |
| 20260503213054 | 70 | 311 | 6.0 | 15.0 | 0.00 | 0.00 | 0.00 | 25 | 1009.2 |
| 20260503212539 | 69 | 350 | 6.0 | 16.0 | 0.00 | 0.00 | 0.00 | 25 | 1009.2 |
| 20260503212041 | 69 | 311 | 7.0 | 16.0 | 0.00 | 0.00 | 0.00 | 25 | 1009.2 |
| 20260503211605 | 70 | 10 | 5.0 | 14.0 | 0.00 | 0.00 | 0.00 | 27 | 1009.2 |
| 20260503211042 | 69 | 343 | 6.0 | 15.0 | 0.00 | 0.00 | 0.00 | 26 | 1009.3 |
| 20260503210539 | 69 | 360 | 9.0 | 19.0 | 0.00 | 0.00 | 0.00 | 27 | 1009.4 |
| 20260503210055 | 69 | 10 | 10.0 | 19.0 | 0.00 | 0.00 | 0.00 | 25 | 1009.5 |
| 20260503205539 | 69 | 5 | 8.0 | 16.0 | 0.00 | 0.00 | 0.00 | 27 | 1009.5 |
| 20260503205040 | 69 | 320 | 5.0 | 16.0 | 0.00 | 0.00 | 0.00 | 27 | 1009.5 |
| 20260503204556 | 68 | 305 | 9.0 | 16.0 | 0.00 | 0.00 | 0.00 | 26 | 1009.6 |
| 20260503204038 | 68 | 32 | 8.0 | 16.0 | 0.00 | 0.00 | 0.00 | 27 | 1009.5 |
| 20260503203539 | 68 | 350 | 8.0 | 16.0 | 0.00 | 0.00 | 0.00 | 26 | 1009.6 |
| 20260503203055 | 68 | 323 | 8.0 | 16.0 | 0.00 | 0.00 | 0.00 | 26 | 1009.7 |
| 20260503202539 | 68 | 20 | 7.0 | 17.0 | 0.00 | 0.00 | 0.00 | 26 | 1009.8 |
| 20260503202039 | 68 | 18 | 8.0 | 17.0 | 0.00 | 0.00 | 0.00 | 28 | 1009.9 |
| 20260503201552 | 68 | 349 | 7.0 | 17.0 | 0.00 | 0.00 | 0.00 | 27 | 1009.9 |
| 20260503201038 | 67 | 346 | 8.0 | 16.0 | 0.00 | 0.00 | 0.00 | 27 | 1010.0 |
| 20260503200542 | 67 | 360 | 7.0 | 14.0 | 0.00 | 0.00 | 0.00 | 26 | 1010.2 |
| 20260503200055 | 68 | 340 | 6.0 | 14.0 | 0.00 | 0.00 | 0.00 | 26 | 1010.1 |
| 20260503195539 | 67 | 352 | 8.0 | 14.0 | 0.00 | 0.00 | 0.00 | 27 | 1010.1 |
| 20260503195038 | 67 | 337 | 8.0 | 14.0 | 0.00 | 0.00 | 0.00 | 26 | 1010.0 |
| 20260503194555 | 67 | 315 | 7.0 | 12.0 | 0.00 | 0.00 | 0.00 | 27 | 1010.2 |
| 20260503194040 | 67 | 346 | 7.0 | 17.0 | 0.00 | 0.00 | 0.00 | 27 | 1010.2 |
| 20260503193540 | 67 | 346 | 9.0 | 17.0 | 0.00 | 0.00 | 0.00 | 28 | 1010.2 |
| 20260503193053 | 67 | 26 | 4.0 | 15.0 | 0.00 | 0.00 | 0.00 | 29 | 1010.2 |
| 20260503192539 | 67 | 352 | 5.0 | 15.0 | 0.00 | 0.00 | 0.00 | 28 | 1010.3 |
| 20260503192041 | 66 | 17 | 6.0 | 14.0 | 0.00 | 0.00 | 0.00 | 28 | 1010.4 |
| 20260503191557 | 66 | 56 | 7.0 | 15.0 | 0.00 | 0.00 | 0.00 | 28 | 1010.4 |
| 20260503191040 | 66 | 15 | 8.0 | 17.0 | 0.00 | 0.00 | 0.00 | 29 | 1010.7 |
| 20260503190538 | 66 | 352 | 9.0 | 17.0 | 0.00 | 0.00 | 0.00 | 27 | 1010.7 |
| 20260503190052 | 66 | 332 | 9.0 | 14.0 | 0.00 | 0.00 | 0.00 | 27 | 1010.8 |
| 20260503185539 | 66 | 318 | 8.0 | 14.0 | 0.00 | 0.00 | 0.00 | 27 | 1010.9 |
| 20260503185042 | 66 | 41 | 7.0 | 15.0 | 0.00 | 0.00 | 0.00 | 28 | 1010.8 |
| 20260503184554 | 66 | 342 | 6.0 | 15.0 | 0.00 | 0.00 | 0.00 | 28 | 1010.8 |
| 20260503184040 | 66 | 265 | 7.0 | 14.0 | 0.00 | 0.00 | 0.00 | 25 | 1010.9 |
| 20260503183538 | 67 | 309 | 6.0 | 14.0 | 0.00 | 0.00 | 0.00 | 26 | 1011.0 |
| 20260503183101 | 66 | 277 | 5.0 | 16.0 | 0.00 | 0.00 | 0.00 | 27 | 1011.0 |
| 20260503182539 | 66 | 298 | 6.0 | 18.0 | 0.00 | 0.00 | 0.00 | 27 | 1011.1 |
| 20260503182043 | 66 | 320 | 11.0 | 18.0 | 0.00 | 0.00 | 0.00 | 25 | 1011.2 |
| 20260503181618 | 66 | 336 | 5.0 | 13.0 | 0.00 | 0.00 | 0.00 | 26 | 1011.2 |
| 20260503181040 | 65 | 360 | 6.0 | 16.0 | 0.00 | 0.00 | 0.00 | 27 | 1011.3 |
| 20260503180540 | 65 | 320 | 8.0 | 16.0 | 0.00 | 0.00 | 0.00 | 27 | 1011.4 |
| 20260503180113 | 65 | 342 | 6.0 | 16.0 | 0.00 | 0.00 | 0.00 | 30 | 1011.5 |
| 20260503175539 | 65 | 360 | 6.0 | 16.0 | 0.00 | 0.00 | 0.00 | 29 | 1011.4 |
| 20260503175040 | 65 | 311 | 8.0 | 16.0 | 0.00 | 0.00 | 0.00 | 28 | 1011.6 |
| 20260503174556 | 64 | 346 | 9.0 | 15.0 | 0.00 | 0.00 | 0.00 | 27 | 1011.6 |
| 20260503174039 | 64 | 333 | 8.0 | 16.0 | 0.00 | 0.00 | 0.00 | 27 | 1011.6 |
| 20260503173539 | 64 | 21 | 10.0 | 18.0 | 0.00 | 0.00 | 0.00 | 27 | 1011.7 |
| 20260503173057 | 65 | 5 | 10.0 | 19.0 | 0.00 | 0.00 | 0.00 | 27 | 1011.8 |
| 20260503172539 | 64 | 33 | 10.0 | 19.0 | 0.00 | 0.00 | 0.00 | 29 | 1011.9 |
| 20260503172038 | 64 | 352 | 9.0 | 18.0 | 0.00 | 0.00 | 0.00 | 27 | 1012.0 |
| 20260503171553 | 64 | 350 | 9.0 | 21.0 | 0.00 | 0.00 | 0.00 | 26 | 1011.9 |
| 20260503171039 | 65 | 338 | 13.0 | 21.0 | 0.00 | 0.00 | 0.00 | 26 | 1012.0 |
| 20260503170540 | 65 | 350 | 8.0 | 19.0 | 0.00 | 0.00 | 0.00 | 25 | 1011.9 |
| 20260503150538 | 57 | 296 | 3.0 | 9.0 | 0.00 | 0.00 | 0.00 | 35 | 1012.4 |
| 20260503131039 | 48 | 263 | 1.0 | 6.0 | 0.00 | 0.00 | 0.00 | 41 | 1012.6 |
| 20260503130539 | 48 | 263 | 2.0 | 6.0 | 0.00 | 0.00 | 0.00 | 41 | 1012.7 |
| 20260503120106 | 47 | 266 | 2.0 | 7.0 | 0.00 | 0.00 | 0.00 | 38 | 1012.9 |
| 20260503110542 | 45 | 0 | 0.0 | 2.0 | 0.00 | 0.00 | 0.00 | 40 | 1013.2 |
| 20260503100106 | 49 | 342 | 0.0 | 3.0 | 0.00 | 0.00 | 0.00 | 35 | 1013.3 |
| 20260503081550 | 52 | 322 | 2.0 | 5.0 | 0.00 | 0.00 | 0.00 | 29 | 1013.1 |
| 20260503081036 | 52 | 323 | 1.0 | 7.0 | 0.00 | 0.00 | 0.00 | 29 | 1013.1 |
| 20260503080544 | 52 | 265 | 2.0 | 7.0 | 0.00 | 0.00 | 0.00 | 29 | 1013.0 |
| 20260503072542 | 53 | 300 | 3.0 | 8.0 | 0.00 | 0.00 | 0.00 | 29 | 1013.1 |
| 20260503072039 | 53 | 282 | 3.0 | 8.0 | 0.00 | 0.00 | 0.00 | 29 | 1013.1 |
| 20260503071552 | 52 | 277 | 3.0 | 9.0 | 0.00 | 0.00 | 0.00 | 29 | 1013.0 |
| 20260503071043 | 52 | 241 | 2.0 | 9.0 | 0.00 | 0.00 | 0.00 | 29 | 1013.1 |
| 20260503070539 | 53 | 282 | 3.0 | 9.0 | 0.00 | 0.00 | 0.00 | 29 | 1013.0 |
| 20260503060113 | 48 | 0 | 0.0 | 2.0 | 0.00 | 0.00 | 0.00 | 38 | 1013.1 |
| 20260503055039 | 49 | 0 | 0.0 | 2.0 | 0.00 | 0.00 | 0.00 | 38 | 1012.9 |
| 20260503054547 | 50 | 186 | 0.0 | 2.0 | 0.00 | 0.00 | 0.00 | 36 | 1012.8 |
| 20260503054040 | 50 | 0 | 0.0 | 3.0 | 0.00 | 0.00 | 0.00 | 35 | 1012.8 |
| 20260503053539 | 50 | 0 | 0.0 | 4.0 | 0.00 | 0.00 | 0.00 | 35 | 1012.8 |
| 20260503053053 | 50 | 186 | 0.0 | 4.0 | 0.00 | 0.00 | 0.00 | 35 | 1012.8 |
| 20260503052540 | 51 | 186 | 2.0 | 4.0 | 0.00 | 0.00 | 0.00 | 35 | 1012.8 |
| 20260503052040 | 51 | 224 | 0.0 | 4.0 | 0.00 | 0.00 | 0.00 | 35 | 1012.8 |
| 20260503051549 | 51 | 0 | 0.0 | 4.0 | 0.00 | 0.00 | 0.00 | 35 | 1012.8 |
| 20260503051039 | 51 | 197 | 0.0 | 4.0 | 0.00 | 0.00 | 0.00 | 36 | 1012.9 |
| 20260503050539 | 51 | 197 | 1.0 | 4.0 | 0.00 | 0.00 | 0.00 | 36 | 1012.8 |
| 20260503050052 | 51 | 190 | 2.0 | 5.0 | 0.00 | 0.00 | 0.00 | 37 | 1012.8 |
| 20260503045538 | 52 | 190 | 2.0 | 5.0 | 0.00 | 0.00 | 0.00 | 36 | 1012.8 |
| 20260503045039 | 52 | 204 | 2.0 | 5.0 | 0.00 | 0.00 | 0.00 | 35 | 1012.8 |
| 20260503044617 | 53 | 223 | 1.0 | 3.0 | 0.00 | 0.00 | 0.00 | 37 | 1012.9 |
| 20260503044040 | 53 | 223 | 1.0 | 5.0 | 0.00 | 0.00 | 0.00 | 38 | 1012.9 |
| 20260503043540 | 53 | 223 | 2.0 | 5.0 | 0.00 | 0.00 | 0.00 | 38 | 1012.9 |
| 20260503043050 | 54 | 234 | 1.0 | 3.0 | 0.00 | 0.00 | 0.00 | 42 | 1012.9 |
| 20260503042540 | 55 | 201 | 1.0 | 3.0 | 0.00 | 0.00 | 0.00 | 46 | 1012.8 |
| 20260503042044 | 55 | 201 | 1.0 | 5.0 | 0.00 | 0.00 | 0.00 | 46 | 1012.7 |
| 20260503041554 | 56 | 186 | 1.0 | 6.0 | 0.00 | 0.00 | 0.00 | 46 | 1012.7 |
| 20260503041042 | 57 | 227 | 2.0 | 6.0 | 0.00 | 0.00 | 0.00 | 46 | 1012.7 |
| 20260503040539 | 57 | 231 | 2.0 | 5.0 | 0.00 | 0.00 | 0.00 | 46 | 1012.5 |
| 20260503040104 | 57 | 242 | 0.0 | 5.0 | 0.00 | 0.00 | 0.00 | 46 | 1012.5 |